This demonstration page uses our WeatherBlox Daily Observations layout. Learn more.

40.92945, -100.16068

Hourly Observations for September 23, 2018

Temp ( °F °C ) Dew Point ( °F °C ) Humidity (%) Winds ( mph kmh ) Pressure ( in mb ) Visibility ( mi km ) Precip ( " mm )
12:15 am 00:15 Clear 59 15.2 47 8.5 65 65 SSE 10 17 30 1016 10 16.0934 0 0
12:35 am 00:35 Clear 58 14.6 47 8.4 67 67 SSE 12 19 30 1016 10 16.0934 0 0
12:55 am 00:55 Clear 58 14.5 47 8.3 67 67 S 9 15 30 1016 10 16.0934 0 0
1:15 am 01:15 Clear 58 14.2 47 8.3 68 68 S 8 13 30 1016 10 16.0934 0 0
1:35 am 01:35 Clear 56 13.6 47 8.2 70 70 SSE 5 7 30 1016 10 16.0934 0 0
1:55 am 01:55 Clear 56 13.5 47 8.2 71 71 SSE 5 7 30 1016 10 16.0934 0 0
2:15 am 02:15 Clear 56 13.1 46 8 71 71 SE 5 7 30.03 1017 10 16.0934 0 0
2:35 am 02:35 Clear 55 12.9 47 8.1 73 73 SSE 5 7 30.03 1017 10 16.0934 0 0
2:55 am 02:55 Clear 55 13 46 7.8 71 71 SE 3 6 30.03 1017 10 16.0934 0 0
3:15 am 03:15 Clear 55 13 46 7.8 71 71 S 9 15 30.03 1017 10 16.0934 0 0
3:35 am 03:35 Clear 55 13 46 7.9 71 71 S 8 13 30 1016 10 16.0934 0 0
3:55 am 03:55 Clear 55 13 46 7.8 71 71 S 9 15 30 1016 10 16.0934 0 0
4:15 am 04:15 Clear 55 12.8 46 7.7 71 71 S 8 13 30 1016 10 16.0934 0 0
4:35 am 04:35 Clear 55 12.5 46 7.5 72 72 S 8 13 30 1016 10 16.0934 0 0
4:55 am 04:55 Clear 53 11.9 46 7.5 75 75 S 8 13 30 1016 10 16.0934 0 0
5:15 am 05:15 Clear 53 11.6 45 7.4 76 76 S 8 13 30 1016 10 16.0934 0 0
5:35 am 05:35 Clear 54 12.1 46 7.5 74 74 S 8 13 29.97 1015 10 16.0934 0 0
5:55 am 05:55 Clear 52 11.2 45 7.2 77 77 SSE 5 7 29.97 1015 10 16.0934 0 0
6:15 am 06:15 Clear 53 11.9 45 7.3 74 74 SE 7 11 29.97 1015 10 16.0934 0 0
6:35 am 06:35 Clear 54 12.1 45 7.4 73 73 S 10 17 29.97 1015 10 16.0934 0 0
6:55 am 06:55 Clear 52 11.2 45 7.2 77 77 SSE 8 13 29.97 1015 10 16.0934 0 0
7:15 am 07:15 Clear 51 10.5 45 7.3 81 81 SSE 8 13 29.97 1015 10 16.0934 0 0
7:35 am 07:35 Sunny 50 10 45 7.1 82 82 SSE 6 9 29.97 1015 10 16.0934 0 0
7:55 am 07:55 Sunny 51 10.7 46 7.5 81 81 SSE 6 9 29.97 1015 10 16.0934 0 0
8:15 am 08:15 Sunny 52 11.1 46 8 81 81 SSE 6 9 29.97 1015 10 16.0934 0 0
8:35 am 08:35 Sunny 54 12.1 47 8.3 78 78 SSE 6 9 29.97 1015 10 16.0934 0 0
8:55 am 08:55 Sunny 56 13.4 47 8.5 72 72 S 8 13 29.94 1014 10 16.0934 0 0
9:15 am 09:15 Sunny 58 14.5 47 8.5 67 67 S 9 15 29.94 1014 10 16.0934 0 0
9:35 am 09:35 Sunny 60 15.6 47 8.6 63 63 S 9 15 29.94 1014 10 16.0934 0 0
9:55 am 09:55 Sunny 62 16.7 47 8.6 59 59 S 8 13 29.91 1013 10 16.0934 0 0
10:15 am 10:15 Sunny 64 17.8 48 8.7 55 55 S 8 13 29.91 1013 10 16.0934 0 0
10:35 am 10:35 Sunny 66 18.7 48 8.7 52 52 S 10 17 29.91 1013 10 16.0934 0 0
10:55 am 10:55 Sunny 67 19.3 49 9.5 53 53 SSE 10 17 29.91 1013 10 16.0934 0 0
11:15 am 11:15 Sunny 68 19.8 48 9.1 50 50 S 12 19 29.88 1012 10 16.0934 0 0
11:35 am 11:35 Sunny 69 20.6 48 8.9 47 47 S 12 19 29.88 1012 10 16.0934 0 0
11:55 am 11:55 Sunny 71 21.9 49 9.3 45 45 S 13 20 29.88 1012 10 16.0934 0 0
12:15 pm 12:15 Sunny 73 22.6 49 9.3 43 43 S 12 19 29.88 1012 10 16.0934 0 0
12:35 pm 12:35 Sunny 74 23.5 49 9.7 42 42 S 13 20 29.85 1011 10 16.0934 0 0
12:55 pm 12:55 Sunny 76 24.2 50 9.8 40 40 S 16 26 29.85 1011 10 16.0934 0 0
1:15 pm 13:15 Sunny 77 25.2 49 9.6 37 37 S 15 24 29.83 1010 10 16.0934 0 0
1:35 pm 13:35 Sunny 79 26 49 9.4 35 35 S 16 26 29.83 1010 10 16.0934 0 0
1:55 pm 13:55 Sunny 79 26.3 50 9.8 35 35 SSE 16 26 29.8 1009 10 16.0934 0 0
2:15 pm 14:15 Sunny 81 27.2 50 10 34 34 S 16 26 29.77 1008 10 16.0934 0 0
2:35 pm 14:35 Sunny 82 28 49 9.6 32 32 S 22 35 29.77 1008 10 16.0934 0 0
2:55 pm 14:55 Sunny 83 28.1 50 10.2 33 33 S 21 33 29.77 1008 10 16.0934 0 0
3:15 pm 15:15 Sunny 83 28.6 50 10 31 31 S 18 30 29.77 1008 10 16.0934 0 0
3:35 pm 15:35 Sunny 83 28.5 49 9.5 30 30 S 18 30 29.74 1007 10 16.0934 0 0
3:55 pm 15:55 Sunny 84 28.7 49 9.5 30 30 SSE 21 33 29.74 1007 10 16.0934 0 0
4:15 pm 16:15 Sunny 84 28.9 47 8.5 28 28 S 23 37 29.71 1006 10 16.0934 0 0
4:35 pm 16:35 Sunny 84 28.9 46 8 27 27 SSE 21 33 29.71 1006 10 16.0934 0 0
4:55 pm 16:55 Sunny 84 28.7 45 7.4 26 26 SSE 22 35 29.71 1006 10 16.0934 0 0
5:15 pm 17:15 Sunny 83 28.6 44 6.6 25 25 SSE 23 37 29.71 1006 10 16.0934 0 0
5:35 pm 17:35 Sunny 83 28.5 42 5.4 23 23 SSE 21 33 29.71 1006 10 16.0934 0 0
5:55 pm 17:55 Sunny 83 28.1 44 6.4 25 25 SSE 15 24 29.71 1006 10 16.0934 0 0
6:15 pm 18:15 Sunny 81 27.4 45 7.4 28 28 SSE 20 31 29.71 1006 10 16.0934 0 0
6:35 pm 18:35 Sunny 80 26.5 47 8.4 32 32 SSE 18 30 29.71 1006 10 16.0934 0 0
6:55 pm 18:55 Sunny 78 25.7 49 9.5 36 36 SSE 21 33 29.71 1006 10 16.0934 0 0
7:15 pm 19:15 Sunny 77 24.9 51 10.5 40 40 SSE 17 28 29.74 1007 10 16.0934 0 0
7:35 pm 19:35 Clear 75 23.7 52 11.3 46 46 SE 14 22 29.74 1007 10 16.0934 0 0
7:55 pm 19:55 Clear 73 22.9 54 12.2 51 51 SSE 15 24 29.74 1007 10 16.0934 0 0
8:15 pm 20:15 Clear 72 22 54 12.2 54 54 SSE 12 19 29.74 1007 10 16.0934 0 0
8:35 pm 20:35 Clear 70 21.3 54 12.2 56 56 SE 13 20 29.77 1008 10 16.0934 0 0
8:55 pm 20:55 Clear 70 21 53 11.8 56 56 SSE 13 20 29.8 1009 10 16.0934 0 0
9:15 pm 21:15 Clear 69 20.3 53 11.5 57 57 SSE 15 24 29.8 1009 10 16.0934 0 0
9:35 pm 21:35 Clear 68 20 52 11 56 56 SSE 13 20 29.8 1009 10 16.0934 0 0
9:55 pm 21:55 Clear 67 19.7 52 11 57 57 SSE 12 19 29.8 1009 10 16.0934 0 0
10:15 pm 22:15 Clear 67 19.5 52 11.1 58 58 SSE 14 22 29.8 1009 10 16.0934 0 0
10:35 pm 22:35 Clear 67 19.2 52 11.2 60 60 SSE 12 19 29.8 1009 10 16.0934 0 0
10:55 pm 22:55 Clear 66 19 53 11.6 62 62 SSE 14 22 29.8 1009 10 16.0934 0 0
11:15 pm 23:15 Clear 66 18.8 54 12 65 65 SSE 17 28 29.8 1009 10 16.0934 0 0
11:35 pm 23:35 Clear 65 18.5 54 12.2 67 67 SSE 15 24 29.77 1008 10 16.0934 0 0
11:55 pm 23:55 Clear 65 18.3 54 12.3 68 68 SSE 16 26 29.8 1009 10 16.0934 0 0

Powered by AerisWeather